Theta_e
310 312 314 317 318 323 326 330 330 337 340 344 340 343 343 346 343 343 345 345 345 344 348 340 344 345 342 339 344 345 345 346 347 344 343 343 346 347 346 347 347 347 347
308 309 312 316 320 322 324 325 328 331 333 336 349 348 348 346 347 346 347 347 344 348 348 348 346 347 340 346 346 348 345 346 348 341 340 336 340 343 346 346 346 347 347
305 307 311 316 318 319 321 322 326 328 331 333 335 342 344 346 345 348 347 348 346 348 351 350 348 347 345 344 348 350 349 342 346 347 341 335 330 339 343 346 345 347 345
306 309 311 313 316 317 319 322 325 328 328 331 333 340 336 338 340 345 348 351 349 347 348 353 348 350 346 352 351 351 352 349 344 344 343 348 343 333 331 338 342 345 344
310 308 310 312 315 317 319 322 325 327 328 332 333 329 335 331 334 339 354 359 358 352 347 354 354 354 350 354 355 354 353 349 345 342 342 344 342 343 335 329 333 339 340
309 311 311 313 314 317 319 322 324 326 328 329 330 332 332 335 332 336 340 345 351 353 355 352 356 356 355 354 355 356 353 349 348 347 346 342 339 337 336 331 335 334 338
309 309 311 312 314 316 318 321 323 324 326 327 328 329 331 333 336 338 333 342 343 348 357 359 358 355 358 357 356 354 352 350 348 352 347 346 343 342 339 335 334 330 334
308 310 311 314 315 317 319 320 321 323 324 325 327 331 332 329 330 336 334 334 340 345 358 358 359 356 357 356 356 352 350 352 349 351 352 347 344 342 340 338 331 328 329
309 310 312 314 316 317 318 319 321 322 324 327 331 333 333 333 332 338 343 336 346 345 351 354 357 357 356 355 355 348 350 353 353 353 352 347 344 342 341 340 336 331 325
308 310 311 314 315 317 318 320 321 321 323 325 327 329 334 336 336 338 338 341 346 349 348 353 357 354 353 352 354 351 353 353 351 350 351 348 344 346 344 339 337 336 331
308 310 311 314 314 316 317 318 318 318 320 323 326 327 329 333 338 339 339 343 349 346 345 349 350 351 350 352 353 355 353 351 351 351 347 346 348 344 341 339 338 335 333
309 310 311 312 312 315 314 314 316 317 318 321 322 325 328 329 333 339 339 341 343 344 344 346 348 347 348 352 352 352 351 350 348 345 345 343 343 345 344 339 340 337 337
308 308 308 309 312 312 311 311 313 314 316 318 319 323 325 326 329 337 340 340 341 342 344 345 346 345 347 350 352 352 350 350 349 346 345 344 344 343 340 339 337 336 335
307 307 307 310 311 310 309 309 309 312 314 316 318 320 323 325 326 336 340 339 340 341 343 346 346 345 346 349 350 350 349 349 347 346 345 345 343 341 340 339 338 337 336
306 307 307 309 310 310 309 309 309 310 313 314 315 318 322 324 325 334 339 337 341 342 345 346 345 346 347 347 349 348 348 348 345 345 343 344 338 330 333 336 338 340 335
306 307 308 308 308 308 308 309 308 309 312 312 312 318 322 321 323 333 337 338 341 346 347 346 344 347 345 315 319 339 348 345 343 340 341 341 328 327 319 320 318 329 338
306 307 308 309 310 309 309 308 308 309 307 309 313 316 319 319 322 331 334 338 347 352 350 349 346 348 347 312 313 319 346 345 343 340 340 337 335 331 336 315 312 315 314
307 308 309 309 310 310 309 308 307 305 306 310 312 316 317 317 321 333 334 345 349 351 350 350 349 348 343 308 309 315 345 342 341 341 340 339 337 336 336 335 333 334 333
308 309 310 309 309 308 308 307 305 304 305 308 313 315 316 317 321 333 340 347 346 348 349 347 347 347 335 305 307 324 342 339 338 338 339 339 338 313 308 333 330 332 331
308 308 309 308 308 307 308 306 304 305 307 310 313 312 314 318 321 334 340 343 341 342 344 345 348 332 337 302 307 323 334 336 334 338 338 310 325 302 302 333 330 326 327
309 308 307 306 306 307 308 305 305 305 307 309 312 314 314 321 329 335 336 337 339 340 340 340 341 339 332 313 304 305 334 332 332 333 334 333 302 299 300 303 331 326 325
305 305 304 304 305 306 305 305 306 309 310 311 311 314 319 328 332 338 338 338 336 332 332 330 333 331 329 311 305 302 312 319 334 333 333 328 299 298 299 309 300 301 312
303 304 302 303 304 305 306 306 308 311 313 313 318 322 327 334 332 333 331 331 333 330 329 331 323 325 329 327 301 300 304 309 332 334 317 299 296 296 300 298 298 302 322
299 299 300 301 302 304 306 309 311 312 311 313 317 326 328 330 330 330 330 329 330 331 333 327 325 329 328 327 328 327 325 308 321 310 317 312 309 305 313 310 309 324 325
299 299 299 300 302 305 307 311 314 314 315 315 322 322 328 328 324 321 326 329 333 328 328 330 332 329 329 328 320 322 330 331 320 321 321 320 318 317 318 319 323 325 325
298 298 300 301 304 305 308 312 315 318 315 314 320 322 319 317 319 318 314 298 306 303 303 309 323 329 310 301 301 299 298 299 301 324 322 319 317 317 318 322 323 324 320
Wind_Speed
7 4 8 7 6 6 7 9 10 7 4 6 4 3 10 8 10 12 16 16 15 17 15 12 12 13 13 13 14 13 10 8 7 8 9 9 11 11 9 8 8 9 9
7 5 5 7 8 8 6 6 8 12 11 6 3 2 5 7 9 11 15 16 18 17 16 14 13 14 10 10 10 7 8 7 8 8 8 8 9 10 10 9 8 9 8
4 1 5 6 7 8 10 7 6 6 6 9 6 5 6 5 11 9 13 14 19 18 19 17 13 12 10 10 10 10 12 10 9 14 8 6 7 1 6 8 8 6 8
2 1 2 5 8 9 9 9 7 6 6 4 7 9 9 10 13 14 13 12 18 20 18 16 16 13 13 9 9 9 11 11 11 9 11 12 8 5 5 5 6 6 7
5 3 4 6 7 7 10 8 9 9 6 6 7 9 12 13 13 13 12 11 12 18 18 17 15 14 12 10 10 12 14 11 12 10 9 11 9 8 9 6 7 7 8
3 1 4 6 7 7 7 9 11 10 9 8 8 10 13 14 13 11 11 11 10 12 17 18 14 13 12 12 12 13 13 13 12 10 10 9 9 8 8 8 9 8 5
7 5 7 8 7 8 9 9 10 13 12 11 11 11 12 14 16 14 12 12 12 11 13 16 14 13 11 11 12 12 12 15 14 13 10 9 8 8 7 7 8 5 5
5 8 9 8 8 9 10 10 13 13 12 13 14 13 12 10 11 13 12 12 12 12 11 13 14 17 14 13 12 10 12 14 14 15 12 9 9 7 8 9 7 6 7
10 12 11 9 8 9 9 11 13 13 13 14 14 14 13 13 13 16 13 12 13 11 12 16 16 16 15 15 13 11 14 13 13 12 12 10 7 8 7 8 7 8 8
14 13 12 11 9 10 10 11 12 13 15 14 13 14 15 14 14 13 15 14 12 13 11 15 14 15 14 13 13 14 14 14 10 9 12 10 9 7 7 6 7 7 8
14 13 13 12 13 12 12 12 13 14 13 15 15 15 15 16 18 16 17 16 15 15 16 17 18 18 18 17 16 15 15 14 12 11 13 13 10 8 7 7 7 7 7
12 13 14 14 14 12 13 14 14 16 16 12 14 17 16 17 18 19 19 18 17 17 19 18 18 18 18 17 18 17 14 14 14 14 13 12 9 10 8 7 7 7 6
11 12 14 14 11 11 12 14 15 16 17 18 16 16 16 18 18 21 19 19 18 19 19 18 19 19 18 18 18 15 13 14 15 15 14 13 11 11 9 9 7 8 7
14 13 13 13 10 11 13 14 17 17 18 19 18 18 17 17 16 21 19 19 19 18 19 20 20 19 18 17 16 14 14 15 14 14 13 12 12 11 10 9 9 7 6
15 15 14 14 14 14 15 16 17 18 19 18 19 19 18 18 17 21 18 19 18 19 21 20 19 17 16 13 16 15 15 15 14 13 11 10 10 7 9 9 10 7 8
17 18 16 17 16 16 17 18 18 18 19 20 20 19 18 17 17 21 18 18 20 20 19 19 18 17 12 15 12 15 14 15 15 12 9 10 8 7 4 4 6 3 8
22 19 19 17 16 17 18 19 20 18 20 20 20 20 18 17 14 22 19 20 19 17 17 17 18 18 14 18 15 12 14 14 14 12 11 10 9 10 11 5 2 4 3
19 19 17 18 19 19 19 20 20 16 20 21 20 18 18 15 12 23 19 18 17 17 16 17 18 17 13 18 17 14 14 12 11 12 12 12 12 12 10 10 11 10 8
20 20 20 20 19 20 20 21 17 16 20 20 19 18 15 10 15 21 18 17 16 15 15 17 18 16 14 18 19 16 14 11 12 11 11 12 11 10 6 9 9 8 5
21 20 22 21 20 18 16 14 18 19 20 18 18 19 15 13 18 17 13 14 15 15 13 16 16 16 18 15 18 12 10 12 10 10 10 9 4 12 10 9 6 8 7
25 22 20 21 21 21 19 20 17 19 16 17 17 18 13 22 17 12 11 13 13 14 13 13 12 16 18 13 14 10 12 11 10 9 8 8 9 9 9 6 6 6 8
23 23 21 19 19 17 15 21 19 16 16 15 15 21 26 16 9 15 13 13 13 14 14 15 13 10 11 10 8 6 2 7 9 8 7 6 10 9 9 7 10 11 8
21 19 19 21 19 15 15 20 19 16 17 16 19 19 15 12 8 12 13 11 12 12 13 13 11 10 10 9 8 9 12 8 6 6 9 13 9 9 6 7 10 11 5
18 16 20 19 19 16 16 17 17 15 15 18 17 10 3 8 9 7 8 10 10 11 12 13 11 10 12 11 9 9 8 10 10 13 8 8 7 4 8 6 7 7 7
17 15 16 17 19 15 15 17 14 15 14 13 12 9 5 8 7 6 6 9 10 12 12 11 11 14 13 12 11 12 11 10 10 11 8 7 5 5 6 6 8 8 8
17 16 17 16 17 16 16 15 13 14 9 12 5 1 7 7 8 8 10 20 10 8 12 12 12 8 15 18 15 10 13 18 15 8 8 6 6 6 7 7 6 6 5
Wind_Direction
263 326 321 324 337 6 350 2 340 331 290 234 165 219 248 222 246 242 226 214 210 208 199 206 200 205 206 205 186 185 194 227 232 262 248 248 238 248 245 229 237 234 224
218 302 324 329 342 339 359 340 342 346 336 319 175 147 285 265 253 238 229 212 206 206 207 210 206 209 212 191 192 187 223 213 220 235 242 262 212 218 224 246 234 245 249
256 350 329 337 339 342 342 346 346 324 307 314 327 296 295 289 269 233 231 217 212 204 212 204 209 206 224 187 200 200 213 221 215 218 234 231 239 191 155 220 242 230 241
203 275 321 336 336 337 334 328 331 324 276 266 255 248 250 237 231 240 228 219 211 213 213 203 204 208 214 205 194 203 217 221 228 206 231 257 284 223 205 197 203 227 239
141 110 5 349 331 326 322 325 322 322 299 277 255 254 240 244 242 246 244 219 205 219 218 208 208 207 219 203 210 199 208 209 236 208 203 222 225 238 265 240 198 201 230
193 332 323 314 321 320 326 328 323 313 304 283 270 252 254 263 268 254 248 238 224 211 216 212 212 213 215 212 205 209 203 220 219 227 225 212 217 223 234 239 253 259 161
249 299 309 314 310 315 327 326 327 311 307 288 282 280 271 263 260 256 248 248 242 223 211 204 206 210 213 216 207 205 211 215 220 216 207 216 227 250 248 253 253 252 222
337 324 321 315 307 316 320 323 320 318 312 299 295 292 282 272 270 251 251 251 240 237 232 204 209 207 204 209 202 206 213 211 215 207 219 211 222 216 217 238 249 232 245
315 316 309 302 303 302 309 311 315 314 311 302 298 293 284 273 270 271 264 243 245 241 220 216 209 204 198 198 192 208 205 204 205 199 201 220 205 219 231 244 254 259 254
292 299 299 295 290 292 296 300 305 308 308 299 300 300 298 281 271 260 253 248 242 232 226 213 206 199 189 192 188 205 201 195 188 198 196 205 204 211 226 232 237 247 268
303 299 296 289 291 294 297 301 302 303 298 298 298 296 294 291 288 270 260 245 232 221 214 205 198 190 189 191 192 200 186 186 187 193 193 196 196 216 211 218 230 233 239
302 304 303 298 288 292 303 304 303 301 298 290 284 296 292 299 288 277 266 251 235 222 215 210 196 190 188 188 194 193 175 188 189 187 188 194 186 215 225 218 229 228 219
285 302 293 288 288 292 305 307 305 303 303 298 289 279 288 293 287 276 263 250 236 224 215 209 197 194 188 187 196 184 179 196 190 187 186 189 193 199 213 226 205 216 221
280 292 296 284 275 289 294 307 312 300 303 293 291 280 282 285 282 281 256 243 232 221 212 206 198 192 186 186 184 178 188 190 185 184 186 188 196 203 208 212 217 224 219
282 287 294 286 278 286 298 298 307 304 297 291 289 282 282 284 278 279 249 237 227 218 207 194 192 185 181 180 179 180 187 180 178 183 181 187 197 192 206 214 207 201 214
282 289 285 282 286 293 301 302 301 302 295 291 285 278 278 286 274 283 238 226 217 207 196 189 181 175 180 144 159 174 179 177 176 167 175 174 147 148 171 259 346 260 228
290 285 284 280 285 293 296 298 300 298 281 286 279 277 282 279 274 287 228 217 206 195 190 181 173 171 171 139 142 153 172 176 173 168 179 187 184 187 194 178 246 256 320
288 291 290 292 290 293 295 296 295 283 281 275 274 278 275 267 279 276 217 204 193 186 182 173 168 166 148 140 143 163 163 165 170 179 185 195 178 197 200 195 205 217 200
298 289 288 290 296 296 295 289 285 279 277 274 275 281 277 291 273 260 206 190 182 181 177 169 164 163 141 147 158 166 164 166 177 181 184 189 190 158 184 208 207 213 154
296 286 284 285 289 290 285 286 281 279 276 279 282 283 273 274 261 232 183 177 176 171 161 162 161 151 152 161 157 165 171 167 170 173 160 66 217 147 167 214 188 203 170
282 292 291 289 288 296 294 285 276 277 284 284 283 278 282 249 232 171 169 165 165 147 143 143 142 150 149 161 159 194 174 172 181 172 175 162 128 143 171 235 189 191 145
291 292 289 294 300 290 284 277 272 275 280 279 273 264 250 212 180 160 148 143 136 128 130 124 125 121 127 143 170 176 233 138 178 176 160 133 138 150 165 199 120 136 140
288 301 310 293 283 279 272 272 276 276 278 270 268 285 333 124 130 139 138 132 140 135 136 132 122 120 131 143 107 103 107 86 188 157 104 109 129 138 144 143 148 153 181
298 291 283 282 283 278 275 272 273 276 283 281 289 296 303 119 129 130 138 137 137 141 142 130 131 137 152 147 150 137 130 122 102 108 125 113 120 111 118 123 156 178 174
285 283 278 278 280 278 277 273 272 275 275 299 299 299 147 135 120 95 139 144 144 149 145 141 148 159 156 158 149 154 161 166 127 132 139 139 142 140 135 153 181 176 170
282 278 276 273 272 277 274 270 276 269 289 294 296 145 102 117 123 109 92 45 70 126 109 126 152 129 117 122 129 118 104 112 150 156 152 150 147 144 152 169 175 148 165